STARLINK-31960, 59931

Orbit data source: Space-Track

STARLINK-31960, 59931 is a payload satellite owned by SpaceX/Seattle (US) in LEO that was launched on Sat, 01 Jun 2024 UTC via an FALCON 9 launch vehicle from the Air Force Eastern Test Range (AFETR). Payload-class satellites include a variety of spacecraft equipped with specific instruments for various scientific and technological missions. These include communications satellites like Starlink; space stations such as the ISS; scientific satellites like the Hubble; Earth observation satellites from companies like Planet Labs, Umbra, and HawkEye 360; GPS; miniature CubeSats for education and research; and military/defense satellites.

Loading next visibility...
Identifier
59931, 2024-106K
Orbit
LEO
Country
Flag of USUS
Related business
Manufacturer
SpaceX/Seattle
Mission
Operational Commercial Communications
Bus & Motor
STARLINK V2M, Unknown motor
Mass
730 kg wet, ~700 kg dry
Launch date (UTC)
2024-06-01 (1 year ago)
Launch vehicle
FALCON 9
Launch site
Air Force Eastern Test Range (AFETR)
Object type
Payload
Rocket body
Debris
Shape & HBR
Box + 2 Pan, 17.7 m
Radar Cross Section
33.884 m², Large (>1 m²)

Expand to show TLE details & history
Last TLE update: 9 hours ago

TLE from 9 hours ago
0 STARLINK-31960
1 59931U 24106K   25308.46205568  .00000580  00000-0  30591-4 0  9999
2 59931  43.0011 319.5048 0000727 266.4314  93.6455 15.27578810 81375
Epoch: 2025-11-04T11:05Z
TLE epoch observation values (Epoch: 2025-11-04T11:05:21.610Z)
Latitude
Longitude
109.21603°
Altitude
482.86 km
Speed
7.626 km/s
True Right ascension
21h 18m 01s
True Declination
0° 00' 00"
Sunlit
Object was in daylight at epoch
Visualization orbit readout
Latitude
Unknown
Longitude
Unknown
Altitude
Unknown
Speed
Unknown
Apparent Right ascension
Unknown
Apparent Declination
Unknown
Sunlit
N/A
Visualization observer readout
Local Sidereal Time
16:26:29
Azimuth
Unknown
Elevation
Unknown
Doppler factor
Unknown
Orbital elements
Apogee altitude
485.497 km
Perigee altitude
484.499 km
Semi-major axis
6,863.135 km
Eccentricity
0.00007
Inclination
43.0011°
RAAN
319.5048°
Arg. of periapsis
266.4314°
True anomaly
93.65381°
Mean anomaly
93.6455°
Eccentric anomaly
93.64966°
Mean motion
3.81733 °/min
Orbital period
94.31 mins
BSTAR
0.000030591
Loading maneuver chart data...
Computing Atmospheric mass density...
Loading historical data...
Loading historical data...
Loading historical data...
Loading historical data...
Loading historical data...
Loading historical data...
Loading historical data...

Documentation

Showing up to 5 results
|